Temperature
18 18 18 18 18 18 18 18 18 18 18 18 18 18 18 18 18 18 18 18 18 18 18 18 17 17 17 17 17 17 17 17 17 17 17 17 17 16 16 16 16 16 16
18 18 18 18 18 18 18 18 18 18 18 18 18 18 18 18 18 18 18 18 18 18 18 18 17 17 17 17 17 17 17 17 17 17 17 17 17 16 16 16 16 16 16
18 18 18 18 18 18 18 18 18 18 18 18 18 18 18 18 18 18 18 18 18 18 18 18 17 17 17 17 17 17 17 17 17 17 17 17 17 16 16 16 16 16 16
18 18 18 18 18 18 18 18 18 18 18 18 18 18 18 18 18 18 18 18 18 18 18 18 18 17 17 17 17 17 17 17 17 17 17 17 17 16 16 16 16 16 16
18 18 18 18 18 18 18 18 18 18 18 18 18 18 18 18 18 18 18 18 18 18 18 18 18 18 17 17 17 17 17 17 17 17 17 17 17 17 17 16 16 16 16
18 18 18 18 18 18 18 18 18 18 18 18 18 18 18 18 18 18 18 18 18 18 18 18 18 18 17 17 17 17 17 17 17 17 17 17 17 17 16 16 16 16 16
18 18 18 18 18 18 18 18 18 18 18 18 18 18 18 18 18 18 18 18 18 18 18 17 18 17 17 17 17 17 17 17 17 17 17 17 17 16 16 16 16 16 16
18 18 18 18 18 18 18 18 18 18 18 17 17 17 17 18 18 18 18 18 17 17 18 17 17 17 17 17 17 17 17 17 17 17 17 17 16 16 16 16 16 16 16
18 18 18 18 18 18 18 18 18 18 18 17 17 17 17 17 17 17 17 17 17 17 17 17 17 17 17 17 17 17 17 17 17 17 17 17 16 16 16 16 16 16 16
19 18 18 18 18 18 18 18 18 18 17 17 17 17 17 17 16 17 17 17 17 17 17 17 17 17 17 17 17 17 17 17 17 17 17 17 16 16 16 16 16 16 16
18 18 18 18 18 18 18 18 18 18 17 17 17 17 17 17 17 16 16 17 17 17 17 17 17 17 17 17 17 17 17 17 17 17 17 16 16 16 16 16 16 16 16
18 18 18 18 18 18 18 18 18 18 17 17 17 17 17 17 16 16 16 17 17 17 17 17 17 17 17 17 17 17 17 17 17 16 16 16 16 16 16 16 16 16 16
18 18 18 18 18 18 18 18 18 18 17 17 17 17 17 17 16 16 16 16 16 17 17 17 17 17 17 17 17 17 16 16 16 16 16 16 16 16 16 16 16 16 16
18 18 18 18 18 18 18 18 17 17 17 17 17 17 17 16 16 16 16 16 16 16 16 16 16 16 16 17 17 16 16 16 16 16 16 16 16 16 16 16 16 16 16
18 18 18 18 18 18 18 17 17 17 17 17 17 16 16 16 16 16 16 16 15 15 15 16 16 16 16 16 16 16 16 16 16 16 16 16 16 16 16 16 16 16 16
18 18 18 18 18 18 18 17 17 17 17 17 16 16 16 16 16 16 16 16 15 15 15 15 15 15 16 16 16 16 16 16 16 16 16 16 15 15 15 16 16 15 15
18 18 18 18 18 17 17 17 17 17 17 17 16 16 16 16 16 16 16 15 15 15 15 15 15 15 15 15 15 15 15 15 15 15 15 15 15 15 15 15 15 15 15
18 18 18 18 17 17 17 17 17 17 16 16 16 16 16 16 15 15 15 15 15 15 15 14 15 15 15 15 15 15 15 15 15 15 15 15 15 15 15 15 15 15 15
18 18 18 17 17 17 17 17 17 16 16 16 16 16 15 15 15 15 15 15 15 14 14 14 14 14 14 14 14 15 15 14 14 14 14 15 15 15 15 15 14 14 14
18 18 18 17 17 17 17 16 16 16 16 16 16 15 15 15 15 15 15 15 14 14 14 14 14 14 14 14 14 14 14 14 14 14 14 14 14 14 14 14 14 14 14
18 18 17 17 17 17 16 16 16 16 16 15 15 15 15 15 15 14 14 14 14 14 14 13 13 13 13 13 13 13 13 14 14 14 14 14 14 14 14 14 14 14 14
18 17 17 17 17 17 16 16 16 15 15 15 15 15 15 15 15 14 14 14 14 13 13 13 13 13 13 13 13 13 13 13 13 13 13 13 13 13 13 13 13 13 13
17 17 17 17 17 16 16 16 15 15 15 15 15 15 15 15 14 14 14 14 13 13 13 13 13 13 12 12 12 12 12 12 12 12 12 13 13 13 13 13 13 13 13
17 17 17 16 16 16 16 16 15 15 15 15 15 15 14 14 14 14 14 13 13 13 13 13 12 12 12 12 12 12 12 12 12 12 12 12 12 12 13 13 13 12 12
16 16 16 16 16 16 16 15 15 15 15 15 15 14 14 14 14 13 13 13 13 13 13 13 12 12 12 12 12 12 12 12 12 12 12 11 12 12 12 12 12 12 12
16 16 16 15 15 15 15 15 15 14 14 14 14 14 14 14 13 13 13 13 13 13 12 12 12 12 12 12 12 12 12 11 11 11 11 11 11 11 11 11 12 12 12
Wind_Speed
1 0 0 1 1 1 1 1 1 1 1 2 3 3 4 5 5 5 6 9 9 10 11 10 10 10 11 11 12 12 12 12 12 12 12 12 12 11 11 10 11 11 12
1 1 0 0 1 1 1 1 1 1 2 2 3 4 5 5 5 6 6 8 10 10 10 10 10 11 11 11 11 11 11 12 12 12 12 13 12 12 12 12 11 11 11
2 1 0 1 1 1 1 0 0 0 1 2 3 4 4 5 5 6 6 6 7 8 9 10 10 10 10 10 10 10 11 11 12 12 12 12 13 12 12 12 12 12 12
2 1 1 1 1 0 1 1 0 0 1 2 2 3 3 3 4 5 5 5 5 5 6 8 9 9 10 10 10 10 11 12 12 12 12 12 12 12 13 13 13 12 12
2 2 1 1 0 1 0 1 0 1 1 2 2 2 2 3 3 4 4 4 5 5 5 7 8 9 9 9 9 9 10 11 12 12 12 12 12 13 13 13 13 13 13
2 2 1 1 1 1 0 0 0 0 1 1 2 2 2 3 2 3 3 3 4 4 5 6 6 7 9 9 9 9 10 11 11 11 12 13 13 13 13 13 14 14 13
3 2 1 1 1 1 1 1 1 0 1 1 1 2 2 2 2 2 2 2 3 4 5 5 5 6 6 8 9 10 10 11 12 12 12 13 13 13 14 14 13 14 14
3 2 2 1 1 1 0 1 1 1 1 1 1 1 3 3 2 1 1 2 3 3 4 5 5 6 6 6 8 10 11 12 12 12 12 12 13 14 13 13 12 13 13
2 2 2 2 1 2 1 1 2 2 1 0 0 1 0 2 2 2 1 1 2 2 3 4 5 5 6 6 7 9 11 12 12 11 11 11 12 12 12 12 12 12 12
1 1 1 1 2 1 2 2 1 2 2 1 0 1 1 2 1 2 2 2 3 3 3 3 4 4 5 5 7 8 9 10 10 10 10 9 10 10 11 11 12 13 13
1 0 1 1 1 1 1 1 1 1 1 2 1 1 1 0 1 1 3 3 3 3 3 3 3 3 4 5 6 7 9 9 9 9 9 9 10 11 11 11 12 13 14
1 1 1 1 1 1 1 2 1 1 2 2 1 1 2 1 1 2 2 3 4 3 3 2 2 3 4 4 6 7 7 7 8 9 10 9 9 9 10 11 12 13 14
2 2 1 1 1 1 1 1 1 1 2 2 2 2 2 2 2 2 2 3 3 3 2 2 2 3 4 4 5 7 7 7 7 7 8 8 9 9 9 9 9 11 12
3 3 2 2 2 1 1 1 1 1 1 1 2 2 1 2 2 2 2 2 2 2 2 3 2 2 3 4 6 6 6 7 7 8 8 8 7 7 8 8 8 7 8
3 3 2 2 1 1 1 2 1 1 1 1 2 1 1 2 1 2 2 3 2 3 3 3 2 2 3 4 5 5 5 6 6 7 7 7 7 7 7 7 8 7 7
3 2 2 2 2 1 1 1 1 1 1 1 1 1 1 2 2 2 2 2 3 3 4 3 3 3 3 4 5 4 5 6 6 6 6 6 7 7 6 6 6 7 7
3 3 3 2 2 1 1 1 2 1 1 2 2 1 2 2 2 2 2 2 2 3 4 4 3 3 3 4 5 5 4 4 4 5 5 5 5 5 6 6 6 6 6
3 3 3 3 2 2 2 2 2 2 2 3 3 2 2 2 2 2 2 2 3 3 4 5 3 3 3 4 4 4 4 4 4 5 5 5 5 4 5 5 5 5 6
3 3 3 3 3 3 3 3 3 2 3 3 3 3 4 2 3 3 3 3 2 2 3 3 4 3 3 3 3 3 3 3 4 5 4 4 4 4 4 4 4 4 5
3 3 3 4 4 4 3 3 3 3 3 3 3 4 4 4 4 4 3 3 3 3 3 3 4 3 3 3 2 3 3 3 3 4 4 3 3 3 3 4 4 4 4
4 3 4 4 4 4 4 3 3 4 3 3 3 4 5 5 5 4 3 3 3 3 3 3 4 3 3 3 3 2 4 4 4 2 3 3 2 2 3 3 3 4 4
3 3 4 4 4 4 4 5 4 3 3 3 4 4 4 5 5 5 5 5 4 4 4 4 4 4 5 4 3 3 3 3 3 2 2 3 2 3 3 3 4 4 5
3 3 3 3 4 4 4 4 4 3 3 4 4 4 3 3 3 3 4 4 5 6 6 5 5 5 5 4 3 4 4 3 4 3 2 4 3 4 4 4 5 5 5
2 3 3 3 3 4 4 4 4 3 3 3 4 4 4 4 4 3 3 4 4 5 5 5 6 6 6 5 4 4 4 4 4 4 2 3 3 4 5 4 5 5 5
2 2 2 3 4 5 5 5 3 2 2 4 4 4 4 5 5 4 3 4 5 5 5 5 6 6 6 6 4 3 3 2 4 3 2 2 3 3 4 4 4 5 5
2 2 3 3 4 4 5 4 3 2 3 3 4 4 5 5 6 5 4 4 6 6 5 5 4 5 5 5 4 5 4 3 3 3 2 2 2 2 3 3 3 3 4
Wind_Direction
208 216 288 287 264 226 199 197 214 236 252 251 248 247 251 247 247 244 250 254 251 249 248 245 245 241 235 234 232 227 225 229 228 227 229 233 233 231 231 228 225 226 228
194 185 253 320 286 242 215 206 213 232 254 250 254 251 252 249 245 246 249 258 258 252 248 247 247 247 243 241 237 231 228 231 231 231 233 235 234 233 230 230 230 229 230
197 179 199 272 276 257 184 110 96 240 267 265 267 261 254 250 244 247 250 255 261 260 255 251 249 249 248 244 241 238 234 235 237 236 234 234 236 235 231 232 233 231 231
197 171 203 251 263 155 126 140 216 288 288 277 272 271 265 263 261 253 249 251 254 256 262 260 256 250 247 247 245 244 242 240 242 240 236 234 233 235 235 234 232 230 231
192 174 209 250 213 117 136 221 206 223 269 288 279 273 270 262 262 261 257 256 253 251 254 259 261 257 254 252 253 254 253 250 246 244 240 236 233 231 232 232 231 231 231
195 175 188 230 161 133 176 167 189 243 251 283 297 303 283 269 256 255 258 260 258 254 253 254 258 260 260 258 257 259 262 260 253 250 245 241 236 231 231 232 232 233 232
196 178 184 186 179 184 212 184 164 40 352 353 12 333 317 290 264 256 260 265 272 267 260 253 253 258 260 258 255 255 260 264 259 252 249 246 241 234 232 234 234 233 232
206 190 183 196 198 186 172 154 140 101 2 41 83 17 338 336 332 303 277 260 275 271 268 260 251 253 256 256 259 258 260 263 261 256 253 248 242 237 234 234 236 234 232
203 197 187 189 195 188 204 204 171 160 198 321 118 142 145 290 309 311 288 283 292 286 279 273 264 259 256 255 260 263 264 264 262 260 259 250 243 238 235 235 236 234 234
183 193 197 187 194 188 195 219 192 193 183 229 252 224 205 198 251 311 313 306 301 290 286 287 280 273 269 264 261 265 266 263 260 260 264 256 244 236 234 235 237 235 234
313 254 230 188 187 189 194 207 187 197 200 206 202 211 219 209 213 232 293 313 319 301 294 289 289 290 290 281 274 273 269 265 261 261 262 257 252 243 240 241 242 240 238
303 299 263 221 207 196 204 209 207 219 235 223 210 206 213 210 220 221 261 290 299 300 303 296 300 296 291 293 289 292 282 278 271 265 262 257 257 251 248 246 246 246 243
250 260 245 225 217 211 209 200 203 233 233 226 226 232 230 233 224 218 242 273 285 296 303 298 283 301 301 297 296 299 291 286 276 270 268 263 256 252 250 249 251 250 246
234 233 222 229 237 217 199 181 198 226 222 238 247 233 238 250 226 218 221 243 288 299 298 296 303 305 310 304 305 305 298 290 279 272 270 267 262 261 255 249 250 254 252
233 225 217 219 223 208 197 183 195 228 221 240 249 242 250 263 243 233 225 220 231 279 291 291 294 309 317 310 316 312 303 303 291 283 272 263 260 262 258 254 253 252 248
219 217 225 221 226 225 209 204 223 224 212 253 244 240 256 268 265 254 240 233 221 231 263 274 269 293 311 321 325 316 307 309 301 292 280 271 264 262 258 256 255 253 248
211 216 214 211 220 238 230 211 247 231 219 253 263 250 263 266 273 272 253 238 234 226 252 276 274 293 300 312 320 318 312 309 314 304 293 285 279 271 263 257 256 257 255
218 214 207 208 219 233 233 222 250 251 233 240 250 253 269 272 274 275 264 257 250 235 236 270 284 290 284 301 307 311 318 316 309 309 300 296 296 294 278 262 252 251 251
216 210 203 217 230 233 233 231 227 239 242 244 244 243 253 252 268 270 266 266 264 259 237 254 280 281 285 309 320 325 326 316 315 313 306 300 303 304 298 274 257 252 251
217 216 218 226 232 234 232 231 227 237 250 255 252 247 250 245 250 254 261 259 256 260 258 263 278 288 286 299 307 315 322 322 312 315 317 308 306 306 307 293 274 270 261
234 226 225 235 239 239 239 229 229 239 247 260 265 261 257 255 249 249 260 255 251 255 263 272 281 288 296 303 304 299 296 307 303 297 312 311 318 325 317 299 278 275 269
242 233 231 235 243 253 248 229 220 234 243 253 264 271 270 271 267 262 257 249 240 246 254 256 269 277 284 284 288 292 294 304 299 298 299 297 293 291 300 299 286 279 269
238 239 246 245 252 263 253 242 229 225 234 246 251 260 274 278 271 263 265 270 267 261 248 241 251 261 268 270 273 281 277 277 275 283 286 285 285 284 292 288 276 270 264
236 241 246 249 255 266 259 247 237 226 234 246 248 245 252 271 271 259 263 275 275 271 262 248 246 255 259 257 246 256 265 279 279 271 239 264 280 282 290 287 270 260 262
242 243 248 247 255 268 266 257 245 238 250 262 263 258 251 259 266 259 256 270 283 286 281 270 260 262 264 262 246 241 253 266 283 279 233 252 278 289 285 276 275 267 265
250 253 260 258 258 268 271 256 241 235 254 272 280 274 261 257 263 259 248 258 275 282 293 302 297 288 277 270 246 222 226 240 264 272 246 238 268 291 293 282 278 285 278
Height
1527 1527 1527 1528 1528 1528 1528 1528 1529 1530 1530 1530 1531 1530 1530 1530 1530 1530 1530 1531 1531 1531 1532 1532 1532 1532 1532 1533 1533 1534 1534 1535 1536 1537 1538 1538 1539 1540 1541 1542 1543 1543 1544
1527 1527 1528 1528 1528 1528 1528 1528 1529 1529 1529 1529 1529 1529 1529 1529 1528 1528 1529 1529 1529 1529 1530 1530 1530 1530 1531 1531 1531 1531 1532 1532 1533 1534 1535 1535 1536 1537 1538 1539 1540 1540 1541
1528 1528 1527 1527 1527 1527 1527 1528 1528 1528 1528 1528 1528 1527 1527 1527 1527 1527 1527 1527 1528 1528 1528 1528 1528 1528 1528 1529 1529 1529 1529 1530 1530 1531 1532 1532 1533 1534 1535 1536 1536 1537 1538
1528 1528 1527 1527 1527 1527 1527 1527 1527 1527 1527 1526 1526 1526 1526 1526 1526 1526 1526 1526 1526 1526 1526 1526 1526 1526 1527 1527 1527 1527 1527 1527 1528 1528 1529 1529 1530 1531 1532 1532 1533 1534 1535
1528 1528 1527 1527 1527 1527 1527 1526 1526 1526 1526 1525 1525 1525 1525 1525 1525 1525 1525 1524 1524 1524 1524 1524 1525 1525 1525 1525 1524 1525 1525 1525 1525 1526 1526 1526 1527 1528 1528 1529 1530 1530 1531
1528 1528 1527 1527 1527 1527 1526 1526 1526 1525 1525 1524 1524 1524 1523 1523 1523 1523 1523 1523 1523 1523 1523 1523 1523 1523 1523 1523 1523 1522 1522 1522 1522 1523 1523 1524 1524 1525 1525 1526 1526 1527 1528
1528 1527 1527 1527 1526 1526 1526 1525 1525 1524 1524 1524 1523 1522 1522 1522 1522 1522 1522 1522 1522 1521 1521 1521 1521 1521 1521 1520 1520 1520 1520 1520 1520 1520 1520 1520 1521 1521 1522 1522 1523 1523 1524
1527 1527 1527 1526 1526 1526 1525 1525 1524 1524 1524 1523 1522 1522 1521 1522 1521 1521 1521 1520 1520 1520 1520 1519 1519 1519 1518 1518 1518 1518 1517 1517 1517 1517 1517 1517 1517 1518 1518 1519 1519 1520 1520
1527 1526 1526 1526 1525 1525 1525 1524 1524 1523 1523 1523 1522 1522 1522 1520 1520 1519 1519 1519 1519 1518 1518 1517 1517 1516 1516 1516 1515 1515 1515 1515 1514 1514 1514 1514 1514 1514 1514 1515 1516 1516 1517
1526 1525 1525 1525 1524 1524 1524 1524 1523 1523 1522 1522 1522 1521 1522 1520 1519 1518 1518 1518 1518 1517 1516 1515 1515 1514 1514 1513 1513 1512 1512 1512 1511 1511 1511 1511 1510 1510 1510 1511 1511 1512 1513
1525 1525 1524 1524 1524 1523 1523 1523 1522 1522 1521 1521 1520 1520 1520 1519 1518 1517 1516 1516 1516 1515 1514 1513 1513 1512 1511 1511 1510 1509 1509 1509 1508 1508 1508 1507 1507 1507 1507 1507 1508 1508 1509
1524 1524 1523 1523 1522 1522 1522 1522 1521 1521 1520 1520 1519 1518 1518 1518 1517 1516 1515 1514 1513 1513 1512 1511 1511 1510 1509 1508 1507 1507 1506 1506 1505 1505 1504 1504 1504 1504 1504 1503 1504 1504 1505
1523 1523 1522 1522 1521 1521 1521 1520 1520 1520 1519 1519 1518 1517 1516 1516 1515 1515 1514 1512 1511 1510 1509 1509 1508 1508 1507 1506 1505 1504 1504 1503 1502 1502 1501 1501 1500 1500 1500 1500 1500 1500 1500
1521 1521 1520 1520 1520 1519 1519 1519 1518 1518 1517 1517 1516 1515 1514 1514 1513 1513 1512 1511 1509 1508 1507 1506 1506 1505 1504 1503 1502 1502 1501 1500 1499 1499 1498 1497 1497 1497 1497 1497 1497 1497 1497
1519 1519 1519 1519 1518 1518 1518 1517 1516 1516 1515 1515 1514 1513 1512 1512 1511 1510 1509 1508 1508 1506 1504 1503 1503 1502 1502 1501 1500 1499 1498 1497 1496 1495 1495 1494 1494 1494 1494 1493 1494 1494 1494
1516 1516 1517 1517 1517 1516 1516 1515 1514 1514 1513 1512 1512 1511 1510 1509 1509 1508 1507 1506 1505 1504 1502 1501 1500 1500 1499 1498 1497 1496 1495 1494 1493 1492 1492 1491 1491 1490 1490 1490 1490 1490 1490
1514 1514 1515 1515 1514 1514 1513 1513 1512 1511 1510 1510 1509 1509 1508 1507 1506 1505 1504 1503 1502 1501 1499 1497 1497 1496 1496 1495 1494 1493 1492 1490 1489 1489 1488 1488 1487 1487 1487 1486 1487 1487 1486
1512 1512 1512 1512 1512 1511 1511 1510 1510 1509 1508 1507 1507 1506 1505 1504 1503 1502 1501 1500 1499 1498 1497 1494 1493 1493 1492 1492 1490 1489 1488 1487 1486 1485 1485 1484 1483 1483 1483 1483 1483 1483 1483
1510 1510 1510 1509 1509 1509 1508 1508 1507 1506 1505 1505 1504 1503 1502 1501 1500 1499 1498 1496 1496 1495 1493 1492 1490 1490 1489 1488 1487 1486 1485 1484 1483 1482 1481 1480 1480 1479 1479 1479 1479 1479 1479
1508 1507 1507 1507 1506 1506 1505 1505 1504 1503 1503 1502 1501 1500 1499 1498 1497 1496 1495 1493 1492 1491 1490 1489 1487 1486 1485 1485 1484 1482 1481 1480 1480 1479 1478 1477 1476 1476 1476 1475 1475 1475 1475
1505 1504 1504 1503 1503 1502 1502 1501 1500 1500 1499 1498 1498 1497 1496 1495 1494 1493 1491 1490 1489 1488 1487 1485 1484 1483 1482 1481 1480 1479 1477 1477 1476 1475 1474 1473 1473 1472 1472 1471 1471 1471 1471
1501 1501 1500 1500 1499 1499 1498 1498 1497 1496 1496 1495 1494 1493 1493 1492 1490 1489 1488 1487 1486 1485 1484 1482 1481 1480 1479 1478 1477 1476 1475 1473 1472 1472 1471 1469 1469 1468 1468 1467 1467 1467 1467
1497 1497 1496 1496 1495 1495 1495 1494 1493 1493 1492 1491 1490 1489 1488 1488 1487 1486 1485 1484 1483 1482 1481 1480 1478 1477 1476 1475 1474 1473 1472 1470 1469 1468 1467 1465 1465 1464 1464 1463 1463 1463 1463
1493 1493 1492 1492 1492 1491 1491 1490 1489 1489 1488 1487 1487 1486 1485 1484 1483 1482 1481 1480 1479 1478 1477 1476 1475 1473 1473 1472 1471 1470 1469 1468 1466 1466 1464 1462 1461 1461 1460 1459 1459 1459 1459
1489 1489 1488 1488 1488 1487 1487 1486 1485 1484 1484 1484 1483 1482 1481 1480 1479 1478 1477 1476 1475 1475 1474 1472 1471 1470 1469 1468 1467 1466 1465 1464 1462 1461 1461 1459 1457 1457 1456 1455 1455 1455 1455
1486 1485 1485 1484 1484 1483 1483 1482 1481 1480 1480 1479 1479 1478 1478 1477 1476 1475 1474 1473 1471 1470 1470 1468 1467 1466 1465 1464 1463 1462 1461 1460 1458 1457 1457 1456 1454 1454 1452 1451 1451 1451 1451